Tracking 27420 objects as of 10-Jun-2023
HD Live streaming from Space Station
objects crossing your sky now

STARLINK-1165

Track STARLINK-1165 now!
10-day predictions
STARLINK-1165 is classified as:


NORAD ID: 45059
Int'l Code: 2020-006R
Perigee: 553.3 km
Apogee: 555.4 km
Inclination: 53.1 °
Period: 95.6 minutes
Semi major axis: 6925 km
RCS: Unknown
Launch date: January 29, 2020
Source: United States (US)
Launch site: AIR FORCE EASTERN TEST RANGE (AFETR)
Your satellite tracking list
Your tracking list is empty




NASA's NSSDC Master Catalog

Two Line Element Set (TLE):
1 45059U 20006R   23160.60164744  .00001960  00000-0  15045-3 0  9999
2 45059  53.0548 114.1452 0001457  86.4284 273.6871 15.06398302185125
Source of the keplerian elements: AFSPC